Location: *
(33.3200°N, 8.3381°W)
Time: 16:59:38
(UTC+00:00)

Cosmos 921 Rocket - Pass Details

Date: 09 April 2020
Orbit: 572 x 632 km, 75.8° (Epoch: 26 May)

Event Time Altitude Azimuth Distance (km) Brightness Sun altitude
Rises 20:40:12 0° 348° (NNW) 2,783 6.9 -20.8°
Reaches altitude 10° 20:42:25 10° 352° (N) 1,885 6.0 -21.2°
Enters shadow 20:46:32 66° 70° (ENE) 633 2.8 -21.9°
